This demonstration page uses our WeatherBlox Daily Observations layout. Learn more.

Left ArrowRight Arrow

44.8408, -93.29828

Hourly Observations for November 13, 2016

Temp ( °F °C ) Dew Point ( °F °C ) Humidity (%) Winds ( mph kmh ) Pressure ( in mb ) Visibility ( mi km ) Precip ( " mm )
12:53 am 00:53 Clear 45 7.2 33 0.6 63 63 SSW 10 17 30.00 1016 10 16 0.00 0.00
1:53 am 01:53 Clear 44 6.7 33 0.6 65 65 SSW 12 19 29.98 1015 10 16 0.00 0.00
2:53 am 02:53 Clear 43 6.1 33 0.6 68 68 SSW 9 15 29.96 1015 10 16 0.00 0.00
3:53 am 03:53 Clear 43 6.1 33 0.6 68 68 SSW 8 13 29.94 1014 10 16 0.00 0.00
4:53 am 04:53 Clear 43 6.1 33 0.6 68 68 SSW 10 17 29.92 1013 10 16 0.00 0.00
5:53 am 05:53 Clear 42 5.6 33 0.6 71 71 S 8 13 29.91 1013 10 16 0.00 0.00
6:53 am 06:53 Clear 42 5.6 33 0.6 71 71 S 9 15 29.91 1013 10 16 0.00 0.00
7:53 am 07:53 Sunny 43 6.1 33 0.6 68 68 SSW 6 9 29.91 1013 10 16 0.00 0.00
8:53 am 08:53 Sunny 46 7.8 33 0.6 61 61 SW 10 17 29.90 1012 10 16 0.00 0.00
9:53 am 09:53 Sunny 49 9.4 33 0.6 55 55 SW 16 26 29.88 1012 10 16 0.00 0.00
10:53 am 10:53 Sunny 52 11.1 34 1.1 50 50 WSW 14 22 29.87 1012 10 16 0.00 0.00
11:53 am 11:53 Sunny 55 12.8 34 1.1 45 45 WSW 16 26 29.85 1011 10 16 0.00 0.00
12:53 pm 12:53 Sunny 57 13.9 35 1.7 44 44 SW 13 20 29.85 1011 10 16 0.00 0.00
1:53 pm 13:53 Sunny 59 15 36 2.2 42 42 SW 10 17 29.83 1010 10 16 0.00 0.00
2:53 pm 14:53 Sunny 61 16.1 36 2.2 39 39 SSW 10 17 29.82 1010 10 16 0.00 0.00
3:53 pm 15:53 Sunny 61 16.1 37 2.8 41 41 SW 14 22 29.82 1010 10 16 0.00 0.00
4:53 pm 16:53 Mostly Clear 59 15 37 2.8 44 44 SW 8 13 29.83 1010 10 16 0.00 0.00
5:53 pm 17:53 Clear 57 13.9 37 2.8 47 47 SW 6 9 29.83 1010 10 16 0.00 0.00
6:53 pm 18:53 Clear 55 12.8 37 2.8 51 51 WSW 7 11 29.84 1010 10 16 0.00 0.00
7:53 pm 19:53 Clear 54 12.2 38 3.3 55 55 SW 6 9 29.84 1011 10 16 0.00 0.00
8:53 pm 20:53 Clear 53 11.7 38 3.3 57 57 WSW 7 11 29.85 1011 10 16 0.00 0.00
9:53 pm 21:53 Clear 51 10.6 38 3.3 61 61 VRB 3 6 29.85 1011 10 16 0.00 0.00
10:53 pm 22:53 Mostly Clear 50 10 38 3.3 63 63 WSW 5 7 29.86 1011 10 16 0.00 0.00
11:53 pm 23:53 Mostly Clear 48 8.9 38 3.3 68 68 Calm 29.86 1011 10 16 0.00 0.00

Powered by AerisWeather